COSMOS 2251 DEB, 35901

Orbit data source: Space-Track

COSMOS 2251 DEB, 35901 is space debris in LEO originally from a launch on Wed, 16 Jun 1993 UTC launched from the Plesetsk Missile And Space Complex (PKMTR). The debris from Iridium 33, an American commercial communications satellite, has been tracked extensively since its accidental collision with the defunct Russian satellite Cosmos 2251 in 2009. This event, occurring at high speed in low Earth orbit (LEO), generated thousands of pieces of space debris, significantly increasing the risk of further collisions. The Iridium 33 debris cloud has impacted space traffic management and orbital debris mitigation strategies, making it a subject of ongoing study in space situational awareness.

Loading next visibility...
Identifier
35901, 1993-036AUQ
Orbit
LEO
Country
Flag of CISCIS
Related business
Manufacturer
Unknown
Mission
Spacecraft
Bus & Motor
Unknown
Mass
Unknown
Launch date (UTC)
1993-06-16 (32 years ago)
Launch vehicle
Unknown
Launch site
Plesetsk Missile And Space Complex (PKMTR)
Object type
Payload
Rocket body
Debris
Shape & HBR
Unknown shape, 0.1 m
Radar Cross Section
Small (<0.1 m²)

Expand to show TLE details & history
Last TLE update: 2 days ago

TLE from 2 days ago
0 COSMOS 2251 DEB
1 35901U 93036AUQ 25302.21666510  .00060978  00000-0  47556-2 0  9997
2 35901  74.0133 114.0544 0007644 171.7169   3.4349 15.00828336854578
Epoch: 2025-10-29T05:11Z
TLE epoch observation values (Epoch: 2025-10-29T05:11:59.864Z)
Latitude
4.57026°
Longitude
176.95691°
Altitude
561.253 km
Speed
7.584 km/s
True Right ascension
19h 30m 59s
True Declination
4° 32' 32"
Sunlit
Object was in daylight at epoch
Visualization orbit readout
Latitude
Unknown
Longitude
Unknown
Altitude
Unknown
Speed
Unknown
Apparent Right ascension
Unknown
Apparent Declination
Unknown
Sunlit
N/A
Visualization observer readout
Local Sidereal Time
15:51:33
Azimuth
Unknown
Elevation
Unknown
Doppler factor
Unknown
Orbital elements
Apogee altitude
567.2 km
Perigee altitude
556.591 km
Semi-major axis
6,940.033 km
Eccentricity
0.00076
Inclination
74.0133°
RAAN
114.0544°
Arg. of periapsis
171.7169°
True anomaly
3.44015°
Mean anomaly
3.4349°
Eccentric anomaly
3.43753°
Mean motion
3.75406 °/min
Orbital period
95.9 mins
BSTAR
0.0047556

Documentation

Showing up to 5 results
|